Regional Weather Roundup
Issued by NWS

Home | Current Version | Previous Version | Graphics & Text | Print | Product List | Glossary Off
Versions: 1 2 3 4 5 6 7 8 9 10 11 12 13 14 15 16 17 18 19 20 21 22 23 24 25 26 27 28 29 30 31 32 33 34 35 36 37 38 39 40 41 42 43 44 45 46 47 48 49 50

748
ASUS43 KDMX 261301
RWRIA

WEATHER ROUNDUP FOR IOWA
NATIONAL WEATHER SERVICE DES MOINES IA
800 AM CDT THU APR 26 2018

NOTE: "FAIR" INDICATES FEW OR NO CLOUDS BELOW 12,000 FEET WITH NO
SIGNIFICANT WEATHER AND/OR OBSTRUCTIONS TO VISIBILITY.

* - THESE STATIONS ARE NOT NWS STATIONS...THUS NOT UNDER NWS
QUALITY CONTROL.  THEY ALSO DO NOT REPORT WEATHER SUCH
AS PRECIPITATION OR FOG.

IAZ001>003-012>014-020>022-031>034-043>046-261400-
   NORTHWEST IOWA

CITY           SKY/WX    TMP DP  RH WIND       PRES   REMARKS
CARROLL *      CLOUDY    45  34  65 W3        29.95S
CHEROKEE *     CLOUDY    41  37  83 S8        29.93F
DENISON *      CLOUDY    39  36  87 NW3       29.97R
LE MARS *      CLOUDY    45  37  76 S7        29.92S
ORANGE CITY *  CLOUDY    46  37  71 SW10      29.91R
SHELDON *      CLOUDY    45  36  70 S12       29.89R
SIOUX CITY     CLOUDY    47  36  65 SW9       29.94S
SPENCER        CLOUDY    44  35  70 SW10      29.90F
STORM LAKE *   CLOUDY    45  36  70 SW10      29.93S
$$

IAZ055>058-069>071-079>083-090>094-261400-
   SOUTHWEST IOWA

CITY           SKY/WX    TMP DP  RH WIND       PRES   REMARKS
ATLANTIC *     CLOUDY    36  36 100 CALM      29.98R
AUDUBON *      CLOUDY    36  32  87 CALM      29.97S
CLARINDA *     CLOUDY    39  37  93 SW3       30.02R
COUNCIL BLFS * CLOUDY    45  41  87 SW5       29.97S
CRESTON *      MOSUNNY   41  37  87 W6        29.99R
HARLAN  *      PTSUNNY   37  37 100 S3        30.00S
LAMONI         MOSUNNY   45  37  73 NW6       29.97R
RED OAK *      PTSUNNY   36  36 100 MISG      29.99S FOG
SHENANDOAH *   CLOUDY    36  36 100 CALM      30.00S
$$

IAZ047>049-059>061-072>074-084-261400-
   CENTRAL IOWA

CITY           SKY/WX    TMP DP  RH WIND       PRES   REMARKS
AMES           CLOUDY    43  37  79 CALM      29.95S
ANKENY *       CLOUDY    45  39  81 W3        29.97S
BOONE *        CLOUDY    48  36  61 SW6       29.94F
CHARITON *     CLOUDY    43  36  75 W5        29.96S
DES MOINES     CLOUDY    46  36  68 CALM      29.97R
GRINNELL*      CLOUDY    42  33  72 CALM      29.96S
KNOXVILLE *    MOSUNNY   43  34  70 W5        29.95S
MARSHALLTOWN   CLOUDY    40  36  86 CALM      29.94S
NEWTON *       MOSUNNY   43  36  75 CALM      29.96R
PELLA *        CLOUDY    44  38  79 W3        29.97R
$$

IAZ004>006-015-016-023>025-035-036-261400-
   NORTH CENTRAL IOWA

CITY           SKY/WX    TMP DP  RH WIND       PRES   REMARKS
ALGONA *       CLOUDY    43  34  70 SW10      29.92F
CLARION *      CLOUDY    43  37  81 S7        29.93S
ESTHERVILLE    CLOUDY    42  34  73 SW12      29.89F
FORT DODGE *   CLOUDY    44  35  70 SW6       29.94S
MASON CITY     CLOUDY    45  37  73 SW10      29.94R
FOREST CITY *  FAIR      43  37  81 SW6       29.93R
WEBSTER CITY * CLOUDY    45  37  76 S7        29.92F
IOWA FALLS *   FAIR      43  38  82 W6        29.96S
$$

IAZ007>011-017>019-026>030-037>042-050>054-066-261400-
   NORTHEAST IOWA

CITY           SKY/WX    TMP DP  RH WIND       PRES   REMARKS
CEDAR RAPIDS   FAIR      44  33  65 CALM      29.94R
CHARLES CITY * FAIR      43  43 100 S6        29.93S
CLINTON *        N/A     44  33  65 S7        29.98R
DECORAH *      FAIR      43  34  70 CALM      29.92S
DUBUQUE        FAIR      41  34  76 S9        29.95R
MONTICELLO *   FAIR      41  36  81 SE5       29.95S
OELWEIN *      FAIR      45  43  93 CALM      29.94S
WATERLOO       FAIR      39  38  96 CALM      29.94S
$$

IAZ064-065-067-068-078-261400-
   EAST CENTRAL IOWA

CITY           SKY/WX    TMP DP  RH WIND       PRES   REMARKS
DAVENPORT      FAIR      45  34  65 S7        29.98R
IOWA CITY      FAIR      44  34  67 CALM      29.97S
MUSCATINE *    FAIR      45  36  70 CALM      29.97S
QUAD CITIES    FAIR      44  34  67 CALM      29.96S
$$

IAZ062-063-075>077-085>089-095>099-261400-
   SOUTHEAST IOWA

CITY           SKY/WX    TMP DP  RH WIND       PRES   REMARKS
BURLINGTON     CLOUDY    46  36  68 S7        29.96R
FAIRFIELD *    CLOUDY    45  30  57 CALM      29.96R
FORT MADISON * CLOUDY    46  39  76 S5        29.97R
KEOKUK *       MOSUNNY   48  39  71 CALM      29.96S
OSKALOOSA *    FAIR      44  32  61 CALM      29.96S
CENTERVILLE *  FAIR      45  39  81 CALM      29.98S
OTTUMWA        MOSUNNY   44  35  70 W3        29.96R
WASHINGTON *   MOSUNNY   45  34  65 CALM      29.97R
$$

ABBREVIATIONS USED IN REMARKS
   TC - TEMPERATURES IN CELSIUS
  WCI - WIND CHILL INDEX
   HX - HEAT INDEX
  VSB - VISIBILITY
$$





USA.gov is the U.S. government's official web portal to all federal, state and local government web resources and services.